Time,TemperatureF,DewpointF,PressureIn,WindDirection,WindDirectionDegrees,WindSpeedMPH,WindSpeedGustMPH,Humidity,HourlyPrecipIn,Conditions,Clouds,dailyrainin,SoftwareType,DateUTC
2013-01-23 00:03:00,23.4,19.8,30.24,NW,320,0.0,0.0,86,0.00,,,0.00,meteohub,2013-01-23 05:03:00,
2013-01-23 00:08:00,23.2,19.6,30.24,NW,320,0.0,0.0,86,0.00,,,0.00,meteohub,2013-01-23 05:08:00,
2013-01-23 00:13:00,23.5,20.3,30.24,NW,320,0.0,0.0,87,0.00,,,0.00,meteohub,2013-01-23 05:13:00,
2013-01-23 00:18:00,23.7,20.7,30.24,NW,320,0.0,0.0,88,0.00,,,0.00,meteohub,2013-01-23 05:18:00,
2013-01-23 00:23:00,23.7,20.5,30.24,NW,320,0.0,0.0,87,0.00,,,0.00,meteohub,2013-01-23 05:23:00,
2013-01-23 00:28:00,23.7,20.5,30.24,NW,320,0.0,0.0,87,0.00,,,0.00,meteohub,2013-01-23 05:28:00,
2013-01-23 00:33:00,23.5,19.9,30.24,NW,320,0.0,0.0,86,0.00,,,0.00,meteohub,2013-01-23 05:33:00,
2013-01-23 00:38:00,23.4,19.8,30.24,NW,320,0.0,0.0,86,0.00,,,0.00,meteohub,2013-01-23 05:38:00,
2013-01-23 00:43:00,23.2,19.6,30.24,NW,320,0.0,0.0,86,0.00,,,0.00,meteohub,2013-01-23 05:43:00,
2013-01-23 00:48:00,22.8,19.2,30.24,NW,320,0.0,0.0,86,0.00,,,0.00,meteohub,2013-01-23 05:48:00,
2013-01-23 00:53:00,22.6,18.9,30.24,NW,320,0.0,0.0,85,0.00,,,0.00,meteohub,2013-01-23 05:53:00,
2013-01-23 00:58:00,22.6,18.9,30.25,NW,320,0.0,0.0,85,0.00,,,0.00,meteohub,2013-01-23 05:58:00,
2013-01-23 01:03:00,22.5,18.9,30.25,NW,320,0.0,0.0,86,0.00,,,0.00,meteohub,2013-01-23 06:03:00,
2013-01-23 01:08:00,22.5,18.9,30.25,NW,320,0.0,0.0,86,0.00,,,0.00,meteohub,2013-01-23 06:08:00,
2013-01-23 01:13:00,22.5,18.9,30.25,NW,320,0.0,0.0,86,0.00,,,0.00,meteohub,2013-01-23 06:13:00,
2013-01-23 01:18:00,22.5,18.9,30.25,NW,320,0.0,0.0,86,0.00,,,0.00,meteohub,2013-01-23 06:18:00,
2013-01-23 01:23:00,22.5,19.2,30.25,NW,320,0.0,0.0,87,0.00,,,0.00,meteohub,2013-01-23 06:23:00,
2013-01-23 01:28:00,22.5,19.2,30.25,NW,320,0.0,0.0,87,0.00,,,0.00,meteohub,2013-01-23 06:28:00,
2013-01-23 01:33:00,22.5,19.2,30.25,NW,320,0.0,0.0,87,0.00,,,0.00,meteohub,2013-01-23 06:33:00,
2013-01-23 01:38:00,22.6,18.9,30.25,NW,320,0.0,0.0,85,0.00,,,0.00,meteohub,2013-01-23 06:38:00,
2013-01-23 01:43:00,22.6,18.5,30.25,NW,320,0.0,0.0,84,0.00,,,0.00,meteohub,2013-01-23 06:43:00,
2013-01-23 01:48:00,22.8,18.5,30.25,NW,320,0.0,0.0,83,0.00,,,0.00,meteohub,2013-01-23 06:48:00,
2013-01-23 01:53:00,22.8,18.1,30.26,NW,320,0.0,0.0,82,0.00,,,0.00,meteohub,2013-01-23 06:53:00,
2013-01-23 01:58:00,23.0,18.3,30.25,NW,320,0.0,0.0,82,0.00,,,0.00,meteohub,2013-01-23 06:58:00,
2013-01-23 02:03:00,23.2,18.1,30.26,NW,320,0.0,0.0,81,0.00,,,0.00,meteohub,2013-01-23 07:03:00,
2013-01-23 02:08:00,23.2,18.0,30.26,NW,320,0.0,0.0,80,0.00,,,0.00,meteohub,2013-01-23 07:08:00,
2013-01-23 02:13:00,23.2,17.6,30.27,NW,320,0.0,0.0,79,0.00,,,0.00,meteohub,2013-01-23 07:13:00,
2013-01-23 02:18:00,23.4,17.8,30.27,NW,320,0.0,0.0,79,0.00,,,0.00,meteohub,2013-01-23 07:18:00,
2013-01-23 02:23:00,23.4,17.8,30.27,NW,320,0.0,0.0,79,0.00,,,0.00,meteohub,2013-01-23 07:23:00,
2013-01-23 02:28:00,23.2,17.4,30.27,NW,320,0.0,0.0,78,0.00,,,0.00,meteohub,2013-01-23 07:28:00,
2013-01-23 02:33:00,23.2,17.4,30.27,NW,320,0.0,0.0,78,0.00,,,0.00,meteohub,2013-01-23 07:33:00,
2013-01-23 02:38:00,23.2,17.1,30.27,NW,320,0.0,0.0,77,0.00,,,0.00,meteohub,2013-01-23 07:38:00,
2013-01-23 02:43:00,23.2,17.1,30.27,NW,320,0.0,0.0,77,0.00,,,0.00,meteohub,2013-01-23 07:43:00,
2013-01-23 02:48:00,23.2,17.1,30.27,NW,320,0.0,0.0,77,0.00,,,0.00,meteohub,2013-01-23 07:48:00,
2013-01-23 02:53:00,23.2,16.7,30.27,NW,320,0.0,0.0,76,0.00,,,0.00,meteohub,2013-01-23 07:53:00,
2013-01-23 02:58:00,23.2,16.5,30.28,NW,320,0.0,0.0,75,0.00,,,0.00,meteohub,2013-01-23 07:58:00,
2013-01-23 03:03:00,23.4,17.2,30.27,NW,320,0.0,0.0,77,0.00,,,0.00,meteohub,2013-01-23 08:03:00,
2013-01-23 03:08:00,23.4,16.7,30.28,NW,320,0.0,0.0,75,0.00,,,0.00,meteohub,2013-01-23 08:08:00,
2013-01-23 03:13:00,23.4,16.7,30.27,NW,320,0.0,0.0,75,0.00,,,0.00,meteohub,2013-01-23 08:13:00,
2013-01-23 03:18:00,23.4,16.3,30.27,NW,320,0.0,0.0,74,0.00,,,0.00,meteohub,2013-01-23 08:18:00,
2013-01-23 03:23:00,23.4,16.3,30.28,NW,320,0.0,0.0,74,0.00,,,0.00,meteohub,2013-01-23 08:23:00,
2013-01-23 03:28:00,23.4,16.3,30.27,NW,320,0.0,0.0,74,0.00,,,0.00,meteohub,2013-01-23 08:28:00,
2013-01-23 03:33:00,23.4,15.6,30.28,NW,320,0.0,0.0,72,0.00,,,0.00,meteohub,2013-01-23 08:33:00,
2013-01-23 03:38:00,23.2,15.4,30.28,NW,320,0.0,0.0,72,0.00,,,0.00,meteohub,2013-01-23 08:38:00,
2013-01-23 03:43:00,23.2,15.8,30.28,NW,320,0.0,0.0,73,0.00,,,0.00,meteohub,2013-01-23 08:43:00,
2013-01-23 03:48:00,23.2,16.2,30.28,NW,320,0.0,0.0,74,0.00,,,0.00,meteohub,2013-01-23 08:48:00,
2013-01-23 03:53:00,23.0,16.0,30.28,NW,320,0.0,0.0,74,0.00,,,0.00,meteohub,2013-01-23 08:53:00,
2013-01-23 03:58:00,22.8,16.2,30.28,NW,320,0.0,0.0,75,0.00,,,0.00,meteohub,2013-01-23 08:58:00,
2013-01-23 04:03:00,22.8,16.2,30.28,NW,320,0.0,0.0,75,0.00,,,0.00,meteohub,2013-01-23 09:03:00,
2013-01-23 04:08:00,22.6,16.2,30.28,NW,320,0.0,0.0,76,0.00,,,0.00,meteohub,2013-01-23 09:08:00,
2013-01-23 04:13:00,22.6,16.5,30.28,NW,320,0.0,0.0,77,0.00,,,0.00,meteohub,2013-01-23 09:13:00,
2013-01-23 04:18:00,22.5,16.0,30.27,NW,320,0.0,0.0,76,0.00,,,0.00,meteohub,2013-01-23 09:18:00,
2013-01-23 04:23:00,22.5,16.0,30.27,NW,320,0.0,0.0,76,0.00,,,0.00,meteohub,2013-01-23 09:23:00,
2013-01-23 04:28:00,22.3,15.8,30.28,NW,320,0.0,0.0,76,0.00,,,0.00,meteohub,2013-01-23 09:28:00,
2013-01-23 04:34:00,22.1,15.6,30.28,NW,320,0.0,0.0,76,0.00,,,0.00,meteohub,2013-01-23 09:34:00,
2013-01-23 04:38:00,21.9,15.4,30.28,NW,320,0.0,0.0,76,0.00,,,0.00,meteohub,2013-01-23 09:38:00,
2013-01-23 04:44:00,21.7,15.6,30.28,NW,320,0.0,0.0,77,0.00,,,0.00,meteohub,2013-01-23 09:44:00,
2013-01-23 04:49:00,21.7,15.6,30.28,NW,320,0.0,0.0,77,0.00,,,0.00,meteohub,2013-01-23 09:49:00,
2013-01-23 04:54:00,21.7,15.6,30.28,NW,320,0.0,0.0,77,0.00,,,0.00,meteohub,2013-01-23 09:54:00,
2013-01-23 04:59:00,21.7,15.6,30.29,NW,320,0.0,0.0,77,0.00,,,0.00,meteohub,2013-01-23 09:59:00,
2013-01-23 05:04:00,21.7,15.3,30.29,NW,320,0.0,0.0,76,0.00,,,0.00,meteohub,2013-01-23 10:04:00,
2013-01-23 05:09:00,21.7,15.3,30.29,NW,320,0.0,0.0,76,0.00,,,0.00,meteohub,2013-01-23 10:09:00,
2013-01-23 05:14:00,21.7,15.3,30.29,NW,320,0.0,0.0,76,0.00,,,0.00,meteohub,2013-01-23 10:14:00,
2013-01-23 05:19:00,21.7,15.3,30.30,NW,320,0.0,0.0,76,0.00,,,0.00,meteohub,2013-01-23 10:19:00,
2013-01-23 05:24:00,21.7,15.3,30.30,NW,320,0.0,0.0,76,0.00,,,0.00,meteohub,2013-01-23 10:24:00,
2013-01-23 05:29:00,21.9,15.4,30.30,NW,320,0.0,0.0,76,0.00,,,0.00,meteohub,2013-01-23 10:29:00,
2013-01-23 05:34:00,22.1,15.4,30.30,NW,320,0.0,0.0,75,0.00,,,0.00,meteohub,2013-01-23 10:34:00,
2013-01-23 05:39:00,22.1,14.7,30.30,NW,320,0.0,0.0,73,0.00,,,0.00,meteohub,2013-01-23 10:39:00,
2013-01-23 05:44:00,22.1,14.2,30.30,NW,320,0.0,1.0,71,0.00,,,0.00,meteohub,2013-01-23 10:44:00,
2013-01-23 05:49:00,22.1,14.7,30.30,NW,320,0.0,1.0,73,0.00,,,0.00,meteohub,2013-01-23 10:49:00,
2013-01-23 05:54:00,22.3,14.9,30.30,NW,320,0.0,1.0,73,0.00,,,0.00,meteohub,2013-01-23 10:54:00,
2013-01-23 05:59:00,22.3,14.9,30.30,NW,320,0.0,0.0,73,0.00,,,0.00,meteohub,2013-01-23 10:59:00,
2013-01-23 06:04:00,22.3,14.7,30.30,NW,320,0.0,0.0,72,0.00,,,0.00,meteohub,2013-01-23 11:04:00,
2013-01-23 06:09:00,22.3,14.7,30.31,NW,320,0.0,0.0,72,0.00,,,0.00,meteohub,2013-01-23 11:09:00,
2013-01-23 06:12:00,22.3,14.7,30.31,NW,320,0.0,0.0,72,0.00,,,0.00,meteohub,2013-01-23 11:12:00,
2013-01-23 06:17:00,22.1,14.5,30.31,NW,320,0.0,0.0,72,0.00,,,0.00,meteohub,2013-01-23 11:17:00,
2013-01-23 06:22:00,21.9,14.4,30.32,NW,320,0.0,0.0,72,0.00,,,0.00,meteohub,2013-01-23 11:22:00,
2013-01-23 06:27:00,21.9,14.5,30.32,NW,320,0.0,0.0,73,0.00,,,0.00,meteohub,2013-01-23 11:27:00,
2013-01-23 06:32:00,21.7,14.2,30.32,NW,320,0.0,0.0,72,0.00,,,0.00,meteohub,2013-01-23 11:32:00,
2013-01-23 06:37:00,21.7,14.2,30.32,NW,320,0.0,0.0,72,0.00,,,0.00,meteohub,2013-01-23 11:37:00,
2013-01-23 06:42:00,21.7,14.4,30.32,NW,320,0.0,0.0,73,0.00,,,0.00,meteohub,2013-01-23 11:42:00,
2013-01-23 06:47:00,21.6,14.2,30.32,NW,320,0.0,0.0,73,0.00,,,0.00,meteohub,2013-01-23 11:47:00,
2013-01-23 06:52:00,21.6,14.0,30.32,NW,320,0.0,0.0,72,0.00,,,0.00,meteohub,2013-01-23 11:52:00,
2013-01-23 06:57:00,21.4,13.8,30.33,NW,320,0.0,0.0,72,0.00,,,0.00,meteohub,2013-01-23 11:57:00,
2013-01-23 07:02:00,21.4,14.4,30.33,NW,320,0.0,0.0,74,0.00,,,0.00,meteohub,2013-01-23 12:02:00,
2013-01-23 07:07:00,21.2,14.2,30.33,NW,320,0.0,0.0,74,0.00,,,0.00,meteohub,2013-01-23 12:07:00,
2013-01-23 07:12:00,21.2,14.5,30.33,NW,320,0.0,0.0,75,0.00,,,0.00,meteohub,2013-01-23 12:12:00,
2013-01-23 07:17:00,21.2,14.5,30.33,NW,320,0.0,0.0,75,0.00,,,0.00,meteohub,2013-01-23 12:17:00,
2013-01-23 07:22:00,21.2,14.5,30.34,NW,320,0.0,0.0,75,0.00,,,0.00,meteohub,2013-01-23 12:22:00,
2013-01-23 07:28:00,21.0,14.4,30.34,NW,320,0.0,0.0,75,0.00,,,0.00,meteohub,2013-01-23 12:28:00,
2013-01-23 07:33:00,21.0,14.4,30.34,NW,320,0.0,0.0,75,0.00,,,0.00,meteohub,2013-01-23 12:33:00,
2013-01-23 07:38:00,20.8,14.2,30.34,NW,320,0.0,0.0,75,0.00,,,0.00,meteohub,2013-01-23 12:38:00,
2013-01-23 07:43:00,21.0,14.9,30.34,NW,320,0.0,0.0,77,0.00,,,0.00,meteohub,2013-01-23 12:43:00,
2013-01-23 07:48:00,21.2,15.1,30.34,NW,320,0.0,0.0,77,0.00,,,0.00,meteohub,2013-01-23 12:48:00,
2013-01-23 07:53:00,21.4,15.3,30.34,NW,320,0.0,0.0,77,0.00,,,0.00,meteohub,2013-01-23 12:53:00,
2013-01-23 07:58:00,21.7,15.3,30.34,NW,320,0.0,0.0,76,0.00,,,0.00,meteohub,2013-01-23 12:58:00,
2013-01-23 08:03:00,22.8,15.8,30.34,NW,320,0.0,0.0,74,0.00,,,0.00,meteohub,2013-01-23 13:03:00,
2013-01-23 08:08:00,24.1,16.0,30.34,NW,320,0.0,0.0,71,0.00,,,0.00,meteohub,2013-01-23 13:08:00,
2013-01-23 08:13:00,25.2,15.8,30.35,ENE,61,0.0,0.0,67,0.00,,,0.00,meteohub,2013-01-23 13:13:00,
2013-01-23 08:18:00,26.1,15.6,30.35,ENE,61,0.0,5.0,64,0.00,,,0.00,meteohub,2013-01-23 13:18:00,
2013-01-23 08:23:00,26.8,15.1,30.35,NE,46,0.0,5.0,61,0.00,,,0.00,meteohub,2013-01-23 13:23:00,
2013-01-23 08:28:00,27.1,14.0,30.35,ENE,74,0.0,5.0,57,0.00,,,0.00,meteohub,2013-01-23 13:28:00,
2013-01-23 08:33:00,27.7,14.4,30.35,ENE,68,1.0,5.0,57,0.00,,,0.00,meteohub,2013-01-23 13:33:00,
2013-01-23 08:38:00,28.0,13.5,30.35,ENE,61,0.0,5.0,54,0.00,,,0.00,meteohub,2013-01-23 13:38:00,
2013-01-23 08:43:00,28.2,12.9,30.35,NE,51,0.0,5.0,52,0.00,,,0.00,meteohub,2013-01-23 13:43:00,
2013-01-23 08:48:00,28.8,14.2,30.35,NE,54,0.0,5.0,54,0.00,,,0.00,meteohub,2013-01-23 13:48:00,
2013-01-23 08:53:00,29.1,12.4,30.36,East,92,2.0,7.0,49,0.00,,,0.00,meteohub,2013-01-23 13:53:00,
2013-01-23 08:58:00,29.5,12.2,30.36,ENE,76,1.0,7.0,48,0.00,,,0.00,meteohub,2013-01-23 13:58:00,
2013-01-23 09:03:00,30.0,13.1,30.36,East,84,0.0,6.0,49,0.00,,,0.00,meteohub,2013-01-23 14:03:00,
2013-01-23 09:08:00,30.6,12.7,30.36,ENE,76,0.0,6.0,47,0.00,,,0.00,meteohub,2013-01-23 14:08:00,
2013-01-23 09:13:00,30.7,11.5,30.37,East,90,0.0,6.0,44,0.00,,,0.00,meteohub,2013-01-23 14:13:00,
2013-01-23 09:18:00,30.9,10.6,30.36,ESE,103,1.0,6.0,42,0.00,,,0.00,meteohub,2013-01-23 14:18:00,
2013-01-23 09:23:00,31.6,11.7,30.36,NE,54,0.0,6.0,43,0.00,,,0.00,meteohub,2013-01-23 14:23:00,
2013-01-23 09:28:00,32.4,11.8,30.36,ESE,109,1.0,6.0,42,0.00,,,0.00,meteohub,2013-01-23 14:28:00,
2013-01-23 09:33:00,32.5,10.9,30.36,NE,53,0.0,6.0,40,0.00,,,0.00,meteohub,2013-01-23 14:33:00,
2013-01-23 09:38:00,32.7,9.9,30.36,NE,39,0.0,6.0,38,0.00,,,0.00,meteohub,2013-01-23 14:38:00,
2013-01-23 09:43:00,32.9,10.0,30.36,East,89,0.0,7.0,38,0.00,,,0.00,meteohub,2013-01-23 14:43:00,
2013-01-23 09:48:00,33.3,8.6,30.36,East,80,1.0,7.0,35,0.00,,,0.00,meteohub,2013-01-23 14:48:00,
2013-01-23 09:53:00,33.3,9.9,30.37,NE,52,0.0,7.0,37,0.00,,,0.00,meteohub,2013-01-23 14:53:00,
2013-01-23 09:58:00,33.6,9.0,30.37,East,80,3.0,7.0,35,0.00,,,0.00,meteohub,2013-01-23 14:58:00,
2013-01-23 10:03:00,33.4,9.3,30.37,East,84,0.0,8.0,36,0.00,,,0.00,meteohub,2013-01-23 15:03:00,
2013-01-23 10:08:00,34.0,11.1,30.37,North,355,0.0,8.0,38,0.00,,,0.00,meteohub,2013-01-23 15:08:00,
2013-01-23 10:13:00,34.5,11.5,30.37,NNE,31,1.0,8.0,38,0.00,,,0.00,meteohub,2013-01-23 15:13:00,
2013-01-23 10:18:00,35.1,10.8,30.37,ESE,115,2.0,8.0,36,0.00,,,0.00,meteohub,2013-01-23 15:18:00,
2013-01-23 10:23:00,35.1,10.2,30.37,West,263,1.0,4.0,35,0.00,,,0.00,meteohub,2013-01-23 15:23:00,
2013-01-23 10:28:00,35.4,11.7,30.37,NW,315,0.0,4.0,37,0.00,,,0.00,meteohub,2013-01-23 15:28:00,
2013-01-23 10:33:00,35.8,11.5,30.38,NW,316,0.0,5.0,36,0.00,,,0.00,meteohub,2013-01-23 15:33:00,
2013-01-23 10:38:00,36.0,10.2,30.37,East,89,0.0,5.0,34,0.00,,,0.00,meteohub,2013-01-23 15:38:00,
2013-01-23 10:43:00,36.3,11.3,30.38,NNE,12,0.0,4.0,35,0.00,,,0.00,meteohub,2013-01-23 15:43:00,
2013-01-23 10:48:00,36.5,10.0,30.37,ENE,57,3.0,4.0,33,0.00,,,0.00,meteohub,2013-01-23 15:48:00,
2013-01-23 10:53:00,36.5,10.8,30.37,NW,308,3.0,8.0,34,0.00,,,0.00,meteohub,2013-01-23 15:53:00,
2013-01-23 10:58:00,36.7,11.7,30.36,WNW,297,1.0,8.0,35,0.00,,,0.00,meteohub,2013-01-23 15:58:00,
2013-01-23 11:03:00,36.9,11.8,30.36,WNW,288,1.0,8.0,35,0.00,,,0.00,meteohub,2013-01-23 16:03:00,
2013-01-23 11:08:00,36.7,9.5,30.36,WNW,289,0.0,8.0,32,0.00,,,0.00,meteohub,2013-01-23 16:08:00,
2013-01-23 11:13:00,37.0,11.8,30.36,West,259,2.0,7.0,35,0.00,,,0.00,meteohub,2013-01-23 16:13:00,
2013-01-23 11:18:00,36.7,9.5,30.36,WSW,240,4.0,7.0,32,0.00,,,0.00,meteohub,2013-01-23 16:18:00,
2013-01-23 11:23:00,36.9,10.4,30.36,WSW,246,0.0,7.0,33,0.00,,,0.00,meteohub,2013-01-23 16:23:00,
2013-01-23 11:28:00,37.2,9.3,30.36,West,260,3.0,7.0,31,0.00,,,0.00,meteohub,2013-01-23 16:28:00,
2013-01-23 11:33:00,37.2,9.3,30.35,WSW,246,0.0,6.0,31,0.00,,,0.00,meteohub,2013-01-23 16:33:00,
2013-01-23 11:38:00,37.8,9.9,30.35,East,85,3.0,6.0,31,0.00,,,0.00,meteohub,2013-01-23 16:38:00,
2013-01-23 11:43:00,37.9,11.3,30.34,NW,321,0.0,6.0,33,0.00,,,0.00,meteohub,2013-01-23 16:43:00,
2013-01-23 11:48:00,38.1,9.5,30.34,WSW,257,10.0,10.0,30,0.00,,,0.00,meteohub,2013-01-23 16:48:00,
2013-01-23 11:53:00,37.4,8.8,30.34,West,265,2.0,13.0,30,0.00,,,0.00,meteohub,2013-01-23 16:53:00,
2013-01-23 11:58:00,37.2,8.6,30.33,WNW,294,2.0,13.0,30,0.00,,,0.00,meteohub,2013-01-23 16:58:00,
2013-01-23 12:03:00,37.4,8.8,30.33,West,271,4.0,13.0,30,0.00,,,0.00,meteohub,2013-01-23 17:03:00,
2013-01-23 12:08:00,37.9,8.4,30.33,West,259,9.0,13.0,29,0.00,,,0.00,meteohub,2013-01-23 17:08:00,
2013-01-23 12:13:00,37.6,9.0,30.32,West,261,6.0,13.0,30,0.00,,,0.00,meteohub,2013-01-23 17:13:00,
2013-01-23 12:18:00,37.9,9.3,30.32,NW,313,2.0,13.0,30,0.00,,,0.00,meteohub,2013-01-23 17:18:00,
2013-01-23 12:23:00,38.8,10.8,30.32,West,275,0.0,10.0,31,0.00,,,0.00,meteohub,2013-01-23 17:23:00,
2013-01-23 12:28:00,39.4,9.7,30.31,ESE,108,6.0,10.0,29,0.00,,,0.00,meteohub,2013-01-23 17:28:00,
2013-01-23 12:33:00,39.6,11.5,30.31,West,263,2.0,10.0,31,0.00,,,0.00,meteohub,2013-01-23 17:33:00,
2013-01-23 12:38:00,39.6,12.2,30.31,West,259,7.0,7.0,32,0.00,,,0.00,meteohub,2013-01-23 17:38:00,
2013-01-23 12:43:00,39.4,11.3,30.31,WSW,243,0.0,6.0,31,0.00,,,0.00,meteohub,2013-01-23 17:43:00,
2013-01-23 12:48:00,39.6,12.2,30.31,West,278,4.0,6.0,32,0.00,,,0.00,meteohub,2013-01-23 17:48:00,
2013-01-23 12:53:00,40.1,11.8,30.30,WNW,294,4.0,10.0,31,0.00,,,0.00,meteohub,2013-01-23 17:53:00,
2013-01-23 12:58:00,40.5,12.9,30.30,SW,228,0.0,10.0,32,0.00,,,0.00,meteohub,2013-01-23 17:58:00,
2013-01-23 13:03:00,40.5,12.9,30.30,WNW,290,0.0,9.0,32,0.00,,,0.00,meteohub,2013-01-23 18:03:00,
2013-01-23 13:08:00,40.6,12.4,30.29,West,265,3.0,9.0,31,0.00,,,0.00,meteohub,2013-01-23 18:08:00,
2013-01-23 13:13:00,40.5,13.6,30.29,West,268,3.0,9.0,33,0.00,,,0.00,meteohub,2013-01-23 18:13:00,
2013-01-23 13:18:00,40.5,12.2,30.29,West,273,6.0,9.0,31,0.00,,,0.00,meteohub,2013-01-23 18:18:00,
2013-01-23 13:23:00,40.5,12.2,30.28,West,269,4.0,10.0,31,0.00,,,0.00,meteohub,2013-01-23 18:23:00,
2013-01-23 13:28:00,40.6,13.8,30.28,WSW,250,3.0,10.0,33,0.00,,,0.00,meteohub,2013-01-23 18:28:00,
2013-01-23 13:33:00,40.8,12.6,30.28,West,274,2.0,10.0,31,0.00,,,0.00,meteohub,2013-01-23 18:33:00,
2013-01-23 13:38:00,41.0,14.7,30.28,NW,311,0.0,10.0,34,0.00,,,0.00,meteohub,2013-01-23 18:38:00,
2013-01-23 13:43:00,41.4,13.6,30.27,WSW,247,3.0,10.0,32,0.00,,,0.00,meteohub,2013-01-23 18:43:00,
2013-01-23 13:48:00,41.5,13.8,30.27,SW,234,1.0,10.0,32,0.00,,,0.00,meteohub,2013-01-23 18:48:00,
2013-01-23 13:54:00,41.4,13.6,30.27,WNW,285,2.0,9.0,32,0.00,,,0.00,meteohub,2013-01-23 18:54:00,
2013-01-23 13:59:00,42.3,15.8,30.27,West,269,7.0,9.0,34,0.00,,,0.00,meteohub,2013-01-23 18:59:00,
2013-01-23 14:04:00,43.0,15.1,30.27,WNW,286,1.0,8.0,32,0.00,,,0.00,meteohub,2013-01-23 19:04:00,
2013-01-23 14:09:00,42.6,14.0,30.27,West,271,1.0,8.0,31,0.00,,,0.00,meteohub,2013-01-23 19:09:00,
2013-01-23 14:14:00,42.4,14.0,30.27,West,268,3.0,7.0,31,0.00,,,0.00,meteohub,2013-01-23 19:14:00,
2013-01-23 14:19:00,42.3,13.8,30.26,East,99,0.0,4.0,31,0.00,,,0.00,meteohub,2013-01-23 19:19:00,
2013-01-23 14:24:00,42.3,14.5,30.26,SW,219,3.0,4.0,32,0.00,,,0.00,meteohub,2013-01-23 19:24:00,
2013-01-23 14:29:00,42.1,13.6,30.25,ENE,78,0.0,4.0,31,0.00,,,0.00,meteohub,2013-01-23 19:29:00,
2013-01-23 14:34:00,41.9,13.5,30.25,SW,224,1.0,6.0,31,0.00,,,0.00,meteohub,2013-01-23 19:34:00,
2013-01-23 14:39:00,42.1,14.4,30.25,West,269,1.0,6.0,32,0.00,,,0.00,meteohub,2013-01-23 19:39:00,
2013-01-23 14:44:00,42.4,15.4,30.25,SW,217,2.0,6.0,33,0.00,,,0.00,meteohub,2013-01-23 19:44:00,
2013-01-23 14:49:00,42.8,14.9,30.25,WSW,244,0.0,9.0,32,0.00,,,0.00,meteohub,2013-01-23 19:49:00,
2013-01-23 14:54:00,42.6,14.9,30.24,SW,235,3.0,9.0,32,0.00,,,0.00,meteohub,2013-01-23 19:54:00,
2013-01-23 14:59:00,43.0,14.4,30.24,West,263,0.0,9.0,31,0.00,,,0.00,meteohub,2013-01-23 19:59:00,
2013-01-23 15:04:00,43.3,15.4,30.24,SW,235,2.0,8.0,32,0.00,,,0.00,meteohub,2013-01-23 20:04:00,
2013-01-23 15:09:00,43.2,16.7,30.24,WNW,283,0.0,8.0,34,0.00,,,0.00,meteohub,2013-01-23 20:09:00,
2013-01-23 15:14:00,42.8,15.6,30.25,West,259,8.0,8.0,33,0.00,,,0.00,meteohub,2013-01-23 20:14:00,
2013-01-23 15:19:00,43.2,16.0,30.25,North,5,0.0,8.0,33,0.00,,,0.00,meteohub,2013-01-23 20:19:00,
2013-01-23 15:24:00,43.2,15.3,30.25,SW,231,4.0,10.0,32,0.00,,,0.00,meteohub,2013-01-23 20:24:00,
2013-01-23 15:29:00,43.3,16.9,30.24,West,259,4.0,10.0,34,0.00,,,0.00,meteohub,2013-01-23 20:29:00,
2013-01-23 15:34:00,43.5,16.3,30.24,West,267,3.0,12.0,33,0.00,,,0.00,meteohub,2013-01-23 20:34:00,
2013-01-23 15:39:00,44.1,16.7,30.24,WSW,258,3.0,12.0,33,0.00,,,0.00,meteohub,2013-01-23 20:39:00,
2013-01-23 15:44:00,43.9,16.7,30.24,West,271,7.0,9.0,33,0.00,,,0.00,meteohub,2013-01-23 20:44:00,
2013-01-23 15:49:00,43.5,17.6,30.24,WNW,290,0.0,9.0,35,0.00,,,0.00,meteohub,2013-01-23 20:49:00,
2013-01-23 15:54:00,43.5,16.3,30.24,WSW,246,0.0,9.0,33,0.00,,,0.00,meteohub,2013-01-23 20:54:00,
2013-01-23 15:59:00,43.5,17.1,30.24,WSW,241,1.0,9.0,34,0.00,,,0.00,meteohub,2013-01-23 20:59:00,
2013-01-23 16:04:00,44.1,18.1,30.24,West,263,1.0,9.0,35,0.00,,,0.00,meteohub,2013-01-23 21:04:00,
2013-01-23 16:09:00,44.2,17.6,30.24,WSW,242,5.0,9.0,34,0.00,,,0.00,meteohub,2013-01-23 21:09:00,
2013-01-23 16:14:00,43.9,16.7,30.24,SW,236,0.0,8.0,33,0.00,,,0.00,meteohub,2013-01-23 21:14:00,
2013-01-23 16:19:00,44.1,18.9,30.24,SE,135,0.0,8.0,36,0.00,,,0.00,meteohub,2013-01-23 21:19:00,
2013-01-23 16:24:00,43.3,20.1,30.24,SSW,207,1.0,8.0,39,0.00,,,0.00,meteohub,2013-01-23 21:24:00,
2013-01-23 16:29:00,43.0,20.3,30.24,SSW,199,3.0,8.0,40,0.00,,,0.00,meteohub,2013-01-23 21:29:00,
2013-01-23 16:34:00,42.4,21.0,30.24,SSW,211,0.0,7.0,42,0.00,,,0.00,meteohub,2013-01-23 21:34:00,
2013-01-23 16:39:00,42.1,20.7,30.24,South,186,3.0,7.0,42,0.00,,,0.00,meteohub,2013-01-23 21:39:00,
2013-01-23 16:44:00,41.4,20.5,30.24,South,188,1.0,7.0,43,0.00,,,0.00,meteohub,2013-01-23 21:44:00,
2013-01-23 16:49:00,41.4,21.0,30.24,South,180,2.0,10.0,44,0.00,,,0.00,meteohub,2013-01-23 21:49:00,
2013-01-23 16:54:00,41.4,21.0,30.24,WSW,248,0.0,10.0,44,0.00,,,0.00,meteohub,2013-01-23 21:54:00,
2013-01-23 16:59:00,41.0,20.8,30.24,SSW,198,2.0,10.0,44,0.00,,,0.00,meteohub,2013-01-23 21:59:00,
2013-01-23 17:04:00,40.6,21.0,30.24,SSW,203,5.0,6.0,45,0.00,,,0.00,meteohub,2013-01-23 22:04:00,
2013-01-23 17:09:00,40.3,21.2,30.24,SSW,198,2.0,6.0,46,0.00,,,0.00,meteohub,2013-01-23 22:09:00,
2013-01-23 17:14:00,39.9,20.8,30.24,South,175,1.0,8.0,46,0.00,,,0.00,meteohub,2013-01-23 22:14:00,
2013-01-23 17:19:00,39.4,20.8,30.24,SSW,201,0.0,8.0,47,0.00,,,0.00,meteohub,2013-01-23 22:19:00,
2013-01-23 17:24:00,39.0,21.0,30.24,SW,227,0.0,8.0,48,0.00,,,0.00,meteohub,2013-01-23 22:24:00,
2013-01-23 17:29:00,38.8,21.4,30.24,SSW,200,2.0,8.0,49,0.00,,,0.00,meteohub,2013-01-23 22:29:00,
2013-01-23 17:34:00,38.7,21.2,30.24,SW,215,0.0,7.0,49,0.00,,,0.00,meteohub,2013-01-23 22:34:00,
2013-01-23 17:39:00,38.7,21.2,30.24,SSW,205,0.0,7.0,49,0.00,,,0.00,meteohub,2013-01-23 22:39:00,
2013-01-23 17:44:00,38.5,21.4,30.25,SSW,197,2.0,5.0,50,0.00,,,0.00,meteohub,2013-01-23 22:44:00,
2013-01-23 17:49:00,38.1,21.2,30.25,South,179,0.0,5.0,50,0.00,,,0.00,meteohub,2013-01-23 22:49:00,
2013-01-23 17:54:00,37.9,21.0,30.25,South,191,0.0,5.0,50,0.00,,,0.00,meteohub,2013-01-23 22:54:00,
2013-01-23 17:59:00,37.9,21.4,30.25,South,186,0.0,5.0,51,0.00,,,0.00,meteohub,2013-01-23 22:59:00,
2013-01-23 18:04:00,37.8,21.2,30.25,SSW,195,0.0,4.0,51,0.00,,,0.00,meteohub,2013-01-23 23:04:00,
2013-01-23 18:09:00,37.6,21.6,30.25,SSW,198,0.0,4.0,52,0.00,,,0.00,meteohub,2013-01-23 23:09:00,
2013-01-23 18:14:00,37.4,21.9,30.25,SSW,196,0.0,3.0,53,0.00,,,0.00,meteohub,2013-01-23 23:14:00,
2013-01-23 18:19:00,37.2,21.7,30.24,SSW,208,1.0,3.0,53,0.00,,,0.00,meteohub,2013-01-23 23:19:00,
2013-01-23 18:24:00,37.0,21.9,30.24,SSW,195,1.0,2.0,54,0.00,,,0.00,meteohub,2013-01-23 23:24:00,
2013-01-23 18:29:00,36.9,22.3,30.25,SSW,206,0.0,2.0,55,0.00,,,0.00,meteohub,2013-01-23 23:29:00,
2013-01-23 18:34:00,36.9,22.6,30.24,SW,215,0.0,2.0,56,0.00,,,0.00,meteohub,2013-01-23 23:34:00,
2013-01-23 18:39:00,36.9,22.6,30.24,SSW,196,0.0,3.0,56,0.00,,,0.00,meteohub,2013-01-23 23:39:00,
2013-01-23 18:44:00,36.9,22.6,30.24,South,190,0.0,3.0,56,0.00,,,0.00,meteohub,2013-01-23 23:44:00,
2013-01-23 18:49:00,36.7,22.5,30.24,SSW,198,0.0,3.0,56,0.00,,,0.00,meteohub,2013-01-23 23:49:00,
2013-01-23 18:54:00,36.7,22.5,30.24,South,189,0.0,3.0,56,0.00,,,0.00,meteohub,2013-01-23 23:54:00,
2013-01-23 18:59:00,36.5,22.6,30.24,South,189,0.0,3.0,57,0.00,,,0.00,meteohub,2013-01-23 23:59:00,
2013-01-23 19:04:00,36.3,22.5,30.24,South,189,0.0,3.0,57,0.00,,,0.00,meteohub,2013-01-24 00:04:00,
2013-01-23 19:09:00,36.1,22.8,30.24,South,189,0.0,3.0,58,0.00,,,0.00,meteohub,2013-01-24 00:09:00,
2013-01-23 19:14:00,36.1,22.8,30.23,South,190,0.0,3.0,58,0.00,,,0.00,meteohub,2013-01-24 00:14:00,
2013-01-23 19:19:00,36.0,23.0,30.23,South,190,0.0,1.0,59,0.00,,,0.00,meteohub,2013-01-24 00:19:00,
2013-01-23 19:24:00,36.0,23.0,30.23,South,190,0.0,1.0,59,0.00,,,0.00,meteohub,2013-01-24 00:24:00,
2013-01-23 19:29:00,35.4,25.2,30.23,South,190,0.0,1.0,66,0.00,,,0.00,meteohub,2013-01-24 00:29:00,
2013-01-23 19:34:00,34.5,25.3,30.23,South,190,0.0,1.0,69,0.00,,,0.00,meteohub,2013-01-24 00:34:00,
2013-01-23 19:39:00,33.6,24.3,30.23,South,190,0.0,1.0,68,0.00,,,0.00,meteohub,2013-01-24 00:39:00,
2013-01-23 19:44:00,32.5,24.3,30.23,South,190,0.0,0.0,71,0.00,,,0.00,meteohub,2013-01-24 00:44:00,
2013-01-23 19:49:00,31.8,23.5,30.22,South,190,0.0,0.0,71,0.00,,,0.00,meteohub,2013-01-24 00:49:00,
2013-01-23 19:54:00,31.3,23.7,30.22,South,190,0.0,0.0,73,0.00,,,0.00,meteohub,2013-01-24 00:54:00,
2013-01-23 19:59:00,30.7,24.1,30.21,South,190,0.0,0.0,76,0.00,,,0.00,meteohub,2013-01-24 00:59:00,
2013-01-23 20:04:00,30.4,23.7,30.22,South,190,0.0,0.0,76,0.00,,,0.00,meteohub,2013-01-24 01:04:00,
2013-01-23 20:09:00,30.2,23.9,30.22,South,190,0.0,0.0,77,0.00,,,0.00,meteohub,2013-01-24 01:09:00,
2013-01-23 20:14:00,29.8,22.8,30.21,South,190,0.0,0.0,75,0.00,,,0.00,meteohub,2013-01-24 01:14:00,
2013-01-23 20:19:00,29.5,22.5,30.22,South,190,0.0,0.0,75,0.00,,,0.00,meteohub,2013-01-24 01:19:00,
2013-01-23 20:24:00,29.1,22.3,30.21,South,190,0.0,0.0,75,0.00,,,0.00,meteohub,2013-01-24 01:24:00,
2013-01-23 20:29:00,28.9,22.6,30.20,South,190,0.0,0.0,77,0.00,,,0.00,meteohub,2013-01-24 01:29:00,
2013-01-23 20:34:00,28.8,23.0,30.20,South,190,0.0,0.0,79,0.00,,,0.00,meteohub,2013-01-24 01:34:00,
2013-01-23 20:39:00,28.8,23.9,30.20,South,190,0.0,0.0,82,0.00,,,0.00,meteohub,2013-01-24 01:39:00,
2013-01-23 20:44:00,28.9,24.4,30.20,South,190,0.0,0.0,83,0.00,,,0.00,meteohub,2013-01-24 01:44:00,
2013-01-23 20:50:00,28.9,24.4,30.20,South,190,0.0,0.0,83,0.00,,,0.00,meteohub,2013-01-24 01:50:00,
2013-01-23 20:55:00,29.1,25.2,30.19,South,190,0.0,0.0,85,0.00,,,0.00,meteohub,2013-01-24 01:55:00,
2013-01-23 21:00:00,28.9,24.8,30.19,South,190,0.0,0.0,84,0.00,,,0.00,meteohub,2013-01-24 02:00:00,
2013-01-23 21:05:00,29.1,25.2,30.19,South,190,0.0,0.0,85,0.00,,,0.00,meteohub,2013-01-24 02:05:00,
2013-01-23 21:10:00,29.1,25.2,30.19,South,190,0.0,0.0,85,0.00,,,0.00,meteohub,2013-01-24 02:10:00,
2013-01-23 21:15:00,29.3,25.3,30.19,South,190,0.0,0.0,85,0.00,,,0.00,meteohub,2013-01-24 02:15:00,
2013-01-23 21:20:00,29.7,25.7,30.19,South,190,0.0,0.0,85,0.00,,,0.00,meteohub,2013-01-24 02:20:00,
2013-01-23 21:25:00,29.8,25.5,30.19,South,190,0.0,0.0,84,0.00,,,0.00,meteohub,2013-01-24 02:25:00,
2013-01-23 21:30:00,30.2,25.7,30.19,South,190,0.0,0.0,83,0.00,,,0.00,meteohub,2013-01-24 02:30:00,
2013-01-23 21:35:00,30.4,25.9,30.19,South,190,0.0,0.0,83,0.00,,,0.00,meteohub,2013-01-24 02:35:00,
2013-01-23 21:40:00,30.2,25.2,30.19,South,190,0.0,0.0,81,0.00,,,0.00,meteohub,2013-01-24 02:40:00,
2013-01-23 21:45:00,30.0,25.2,30.19,South,190,0.0,0.0,82,0.00,,,0.00,meteohub,2013-01-24 02:45:00,
2013-01-23 21:50:00,30.0,25.5,30.19,South,190,0.0,0.0,83,0.00,,,0.00,meteohub,2013-01-24 02:50:00,
2013-01-23 21:55:00,29.8,24.8,30.19,South,190,0.0,0.0,81,0.00,,,0.00,meteohub,2013-01-24 02:55:00,
2013-01-23 22:00:00,29.5,23.7,30.19,South,190,0.0,0.0,79,0.00,,,0.00,meteohub,2013-01-24 03:00:00,
2013-01-23 22:05:00,29.1,23.7,30.18,South,190,0.0,0.0,80,0.00,,,0.00,meteohub,2013-01-24 03:05:00,
2013-01-23 22:10:00,28.9,24.1,30.18,South,190,0.0,0.0,82,0.00,,,0.00,meteohub,2013-01-24 03:10:00,
2013-01-23 22:15:00,28.8,24.6,30.18,South,190,0.0,0.0,84,0.00,,,0.00,meteohub,2013-01-24 03:15:00,
2013-01-23 22:20:00,28.8,24.6,30.18,South,190,0.0,0.0,84,0.00,,,0.00,meteohub,2013-01-24 03:20:00,
2013-01-23 22:25:00,28.6,24.4,30.17,South,190,0.0,0.0,84,0.00,,,0.00,meteohub,2013-01-24 03:25:00,
2013-01-23 22:30:00,28.6,24.6,30.17,South,190,0.0,0.0,85,0.00,,,0.00,meteohub,2013-01-24 03:30:00,
2013-01-23 22:35:00,28.2,24.3,30.17,South,190,0.0,0.0,85,0.00,,,0.00,meteohub,2013-01-24 03:35:00,
2013-01-23 22:40:00,28.0,23.9,30.17,South,190,0.0,0.0,84,0.00,,,0.00,meteohub,2013-01-24 03:40:00,
2013-01-23 22:45:00,27.9,23.4,30.17,South,190,0.0,0.0,83,0.00,,,0.00,meteohub,2013-01-24 03:45:00,
2013-01-23 22:50:00,27.7,23.2,30.16,South,190,0.0,0.0,83,0.00,,,0.00,meteohub,2013-01-24 03:50:00,
2013-01-23 22:55:00,27.7,23.5,30.16,South,190,0.0,0.0,84,0.00,,,0.00,meteohub,2013-01-24 03:55:00,
2013-01-23 23:00:00,27.5,23.4,30.16,South,190,0.0,0.0,84,0.00,,,0.00,meteohub,2013-01-24 04:00:00,
2013-01-23 23:05:00,27.5,23.5,30.15,South,190,0.0,0.0,85,0.00,,,0.00,meteohub,2013-01-24 04:05:00,
2013-01-23 23:10:00,27.3,23.4,30.15,South,190,0.0,0.0,85,0.00,,,0.00,meteohub,2013-01-24 04:10:00,
2013-01-23 23:15:00,27.3,23.4,30.14,South,190,0.0,0.0,85,0.00,,,0.00,meteohub,2013-01-24 04:15:00,
2013-01-23 23:20:00,27.3,23.9,30.14,South,190,0.0,0.0,87,0.00,,,0.00,meteohub,2013-01-24 04:20:00,
2013-01-23 23:25:00,27.5,24.1,30.14,South,190,0.0,0.0,87,0.00,,,0.00,meteohub,2013-01-24 04:25:00,
2013-01-23 23:30:00,27.5,24.1,30.14,South,190,0.0,0.0,87,0.00,,,0.00,meteohub,2013-01-24 04:30:00,
2013-01-23 23:35:00,27.7,24.6,30.13,South,190,0.0,0.0,88,0.00,,,0.00,meteohub,2013-01-24 04:35:00,
2013-01-23 23:40:00,27.7,24.6,30.13,South,190,0.0,0.0,88,0.00,,,0.00,meteohub,2013-01-24 04:40:00,
2013-01-23 23:45:00,27.9,24.8,30.13,South,190,0.0,0.0,88,0.00,,,0.00,meteohub,2013-01-24 04:45:00,
2013-01-23 23:50:00,28.4,25.9,30.13,South,190,0.0,0.0,90,0.00,,,0.00,meteohub,2013-01-24 04:50:00,
2013-01-23 23:55:00,28.8,26.2,30.12,South,190,0.0,0.0,90,0.00,,,0.00,meteohub,2013-01-24 04:55:00,